Showing default

IRIDE-MS1-EAG2-15, 68462

Orbit data source: Space-Track

IRIDE-MS1-EAG2-15, 68462 is an Italian payload satellite in SSO that was launched on Mon, 30 Mar 2026 UTC via an FALCON 9 launch vehicle from the Air Force Western Test Range (AFWTR). Payload-class satellites include a variety of spacecraft equipped with specific instruments for various scientific and technological missions. These include communications satellites like Starlink; space stations such as the ISS; scientific satellites like the Hubble; Earth observation satellites from companies like Planet Labs, Umbra, and HawkEye 360; GPS; miniature CubeSats for education and research; and military/defense satellites.

Loading next visibility...
Identifier
68462, 2026-067AY
Orbit
SSO
Country
Flag of ITIT
Related business
Manufacturer
OHB-I
Mission
Operational spacecraft
Bus & Motor
EAGLET, Unknown motor
Mass
25 kg wet, 25 kg dry
Launch date (UTC)
2026-03-30 (3 months ago)
Launch vehicle
FALCON 9
Launch site
Air Force Western Test Range (AFWTR)
Object type
Payload
Rocket body
Debris
Shape & HBR
Unknown shape, 1.1 m
Radar Cross Section
Medium (>0.1 m² and <1 m²)

Expand to show TLE details & history
Last TLE update: 2 days ago

TLE from 2 days ago
0 IRIDE-MS1-EAG2-15
1 68462U 26067AY  26171.42641755  .00005291  00000-0  25768-3 0  9996
2 68462  97.4549 129.8789 0003718  51.3361 308.8205 15.18778713 12432
Epoch: 2026-06-20T10:14Z
TLE epoch observation values (Epoch: 2026-06-20T10:14:02.476Z)
Latitude
-0.00007°
Longitude
67.72738°
Altitude
511.013 km
Speed
7.609 km/s
True Right ascension
08h 39m 30s
True Declination
0° 00' 00"
Sunlit
Object was in daylight at epoch
Visualization orbit readout
Latitude
Unknown
Longitude
Unknown
Altitude
Unknown
Speed
Unknown
Apparent Right ascension
Unknown
Apparent Declination
Unknown
Sunlit
N/A
Visualization observer readout
Local Sidereal Time
19:59:17
Azimuth
Unknown
Elevation
Unknown
Doppler factor
Unknown
Orbital elements
Apogee altitude
509.06 km
Perigee altitude
503.94 km
Semi-major axis
6,884.637 km
Eccentricity
0.00037
Inclination
97.4549°
RAAN
129.8789°
Arg. of periapsis
51.3361°
True anomaly
308.7873°
Mean anomaly
308.8205°
Eccentric anomaly
308.8039°
Mean motion
3.79946 °/min
Orbital period
94.75 mins
BSTAR
0.00025768
Loading maneuver chart data...
Computing Atmospheric mass density...
Loading historical data...
Loading historical data...
Loading historical data...
Loading historical data...
Loading historical data...
Loading historical data...
Loading historical data...

Documentation

Showing up to 5 results
|